Regional Weather Roundup
Issued by NWS Kansas City/Pleasant Hill, MO

Home | Current Version | Previous Version | Text Only | Print | Product List | Glossary On
Versions: 1 2 3 4 5 6 7 8 9 10 11 12 13 14 15 16 17 18 19 20 21 22 23 24 25 26 27 28 29 30 31 32 33 34 35 36 37 38 39 40 41 42 43 44 45 46 47 48 49 50
000
ASUS43 KEAX 292210
RWREAX

WEATHER ROUNDUP FOR EASTERN KANSAS AND NORTHWEST MISSOURI
NATIONAL WEATHER SERVICE KANSAS CITY/PLEASANT HILL MO
500 PM CDT FRI MAY 29 2015

KSZ040-057-103>105-MOZ028-029-037-043-292300-
...KANSAS CITY METROPOLITAN AREA...

CITY           SKY/WX    TMP DP  RH WIND       PRES   REMARKS
K.C. INTL      CLOUDY    69  67  93 S8        29.96S
K.C. DOWNTOWN  LGT RAIN  70  65  84 W3        29.96R
LEES SUMMIT    LGT RAIN  68  66  93 S7        29.96F
OLATHE - IXD   CLOUDY    68  65  90 S10       29.98R
OLATHE - OJC   CLOUDY    68  65  90 S8        29.96F
LAWRENCE       CLOUDY    71  66  84 S7        29.96F

$$

MOZ001>008-011>017-020>025-030>033-038>040-044>046-053-054-292300-
...NORTHERN AND CENTRAL MISSOURI...

CITY           SKY/WX    TMP DP  RH WIND       PRES   REMARKS
ST. JOSEPH     CLOUDY    71  66  84 SW12      29.94F
MOSBY          LGT RAIN  68  66  94 S6        29.97R
WHITEMAN AFB   NOT AVBL
CLINTON        CLOUDY    72  70  94 CALM      29.99F
SEDALIA        LGT RAIN  72  67  84 S3        29.99F
WARSAW         DRIZZLE   70  68  94 CALM      29.99S
CHILLICOTHE      N/A     71  66  84 S8        29.95F
KIRKSVILLE     PTSUNNY   74  65  73 W3        29.93F

$$

MOZ041-047>049-056>058-063>065-088>090-097-292300-
...EASTERN AND SOUTHERN MISSOURI...

CITY           SKY/WX    TMP DP  RH WIND       PRES   REMARKS
ST. LOUIS INTL PTSUNNY   81  67  62 SW9       29.97F
SPIRIT OF STL  PTSUNNY   79  70  74 SW5       29.95F
COLUMBIA       PTSUNNY   75  66  73 W3        29.98F
JEFFERSON CITY PTSUNNY   75  64  68 NW7       29.97F
MEXICO         CLOUDY    75  70  83 SW6       29.99F
ROLLA          PTSUNNY   74  66  76 CALM      29.98F
LEBANON        RAIN      73  66  78 CALM      29.98F
OSAGE BEACH    CLOUDY    73  63  68 E5        29.98F
SPRINGFIELD    LGT RAIN  73  69  87 NE10      29.94F
BRANSON        CLOUDY    73  72  94 NE6       29.95F
NEVADA         HVY RAIN  66  66 100 W5        30.01S
JOPLIN         HVY RAIN  65  64  97 NW15G26   30.00R FOG
WEST PLAINS    PTSUNNY   80  70  71 NE7       29.97F
MALDEN         LGT RAIN  77  72  83 SE13      29.98F

$$

IAZ060-094-KSZ022-034>040-054-083-096-NEZ052-066-093-292300-
...KANSAS...SOUTHEAST NEBRASKA AND IOWA...

CITY           SKY/WX    TMP DP  RH WIND       PRES   REMARKS
TOPEKA         CLOUDY    72  66  81 S9        29.95F
MANHATTAN      PTSUNNY   77  66  68 S7        29.93F
EMPORIA        CLOUDY    71  65  81 SE9       29.96S
CHANUTE        CLOUDY    69  67  93 SE7       29.96S
WICHITA        PTSUNNY   78  61  55 CALM      29.93F
OMAHA          CLOUDY    78  60  53 S12       29.88F
LINCOLN        PTSUNNY   79  59  50 W5        29.91F
FALLS CITY     CLOUDY    74  65  73 SW13      29.93F
LAMONI         CLOUDY    71  64  78 SW13      29.93F
DES MOINES     CLOUDY    74  64  71 SW16      29.89S

$$



USA.gov is the U.S. government's official web portal to all federal, state and local government web resources and services.